When you browse on this site, cookies collect data to enhance your experience and personalize the content and advertising you see.
Visit our Privacy Policy to learn more. By continuing to use the site, you agree to this use of cookies and data.
  • In United Kingdom
  • List of Countries
  • For 7 days
  • Water Temperature
  • Satellite Maps
  • Weather Map
  • Weather Widgets
  • user-avatar
    Login

    Hourly Weather Kindia

    Today, 23 January, Wednesday

    Time Temperature Precipitation Wind Pressure Humidity
    00:00 +28°C° 0 mm 2 mps 706 mmHg 14%
    01:00 +27°C° 0 mm 2 mps 706 mmHg 15%
    02:00 +26°C° 0 mm 2 mps 706 mmHg 16%
    03:00 +26°C° 0 mm 2 mps 706 mmHg 16%
    04:00 +25°C° 0 mm 2 mps 706 mmHg 17%
    05:00 +25°C° 0 mm 2 mps 706 mmHg 17%
    06:00 +25°C° 0 mm 2 mps 706 mmHg 17%
    07:00 +25°C° 0 mm 1 mps 707 mmHg 17%
    08:00 +28°C° 0 mm 1 mps 707 mmHg 15%
    09:00 +32°C° 0 mm 1 mps 708 mmHg 12%
    10:00 +35°C° 0 mm 1 mps 709 mmHg 9%
    11:00 +36°C° 0 mm 1 mps 708 mmHg 8%
    12:00 +39°C° 0 mm 2 mps 708 mmHg 8%
    13:00 +40°C° 0 mm 2 mps 707 mmHg 7%
    14:00 +40°C° 0 mm 2 mps 707 mmHg 7%
    15:00 +40°C° 0 mm 2 mps 706 mmHg 7%
    16:00 +39°C° 0 mm 2 mps 705 mmHg 7%
    17:00 +37°C° 0 mm 2 mps 705 mmHg 9%
    18:00 +34°C° 0 mm 1 mps 705 mmHg 10%
    19:00 +32°C° 0 mm 1 mps 705 mmHg 11%
    20:00 +31°C° 0 mm 1 mps 705 mmHg 12%
    21:00 +30°C° 0 mm 1 mps 706 mmHg 12%
    22:00 +29°C° 0 mm 1 mps 706 mmHg 13%
    23:00 +29°C° 0 mm 1 mps 706 mmHg 14%

    Tomorrow, 24 January, Thursday

    Time Temperature Precipitation Wind Pressure Humidity
    00:00 +29°C° 0 mm 1 mps 706 mmHg 14%
    01:00 +28°C° 0 mm 1 mps 706 mmHg 14%
    02:00 +28°C° 0 mm 1 mps 706 mmHg 15%
    03:00 +27°C° 0 mm 1 mps 705 mmHg 16%
    04:00 +27°C° 0 mm 1 mps 705 mmHg 16%
    05:00 +26°C° 0 mm 1 mps 705 mmHg 17%
    06:00 +26°C° 0 mm 1 mps 706 mmHg 17%
    07:00 +26°C° 0 mm 1 mps 706 mmHg 18%
    08:00 +29°C° 0 mm 1 mps 707 mmHg 15%
    09:00 +32°C° 0 mm 1 mps 707 mmHg 13%
    10:00 +35°C° 0 mm 1 mps 708 mmHg 10%
    11:00 +36°C° 0 mm 1 mps 708 mmHg 9%
    12:00 +39°C° 0 mm 2 mps 707 mmHg 9%
    13:00 +40°C° 0 mm 2 mps 707 mmHg 8%
    14:00 +40°C° 0 mm 2 mps 706 mmHg 8%
    15:00 +40°C° 0 mm 2 mps 705 mmHg 8%
    16:00 +39°C° 0 mm 2 mps 704 mmHg 9%
    17:00 +37°C° 0 mm 2 mps 705 mmHg 11%
    18:00 +35°C° 0 mm 2 mps 705 mmHg 13%
    19:00 +32°C° 0 mm 2 mps 705 mmHg 15%
    20:00 +31°C° 0 mm 2 mps 705 mmHg 18%
    21:00 +30°C° 0 mm 1 mps 706 mmHg 20%
    22:00 +30°C° 0 mm 1 mps 706 mmHg 23%
    23:00 +29°C° 0 mm 2 mps 706 mmHg 24%

    Day after tomorrow, 25 January, Friday

    Time Temperature Precipitation Wind Pressure Humidity
    00:00 +29°C° 0 mm 2 mps 706 mmHg 24%
    01:00 +28°C° 0 mm 2 mps 706 mmHg 24%
    02:00 +27°C° 0 mm 2 mps 706 mmHg 23%
    03:00 +27°C° 0 mm 2 mps 705 mmHg 22%
    04:00 +26°C° 0 mm 2 mps 705 mmHg 21%
    05:00 +26°C° 0 mm 2 mps 705 mmHg 21%
    06:00 +25°C° 0 mm 2 mps 706 mmHg 21%
    07:00 +25°C° 0 mm 2 mps 706 mmHg 21%
    08:00 +28°C° 0 mm 2 mps 707 mmHg 17%
    09:00 +31°C° 0 mm 2 mps 708 mmHg 13%
    10:00 +36°C° 0 mm 2 mps 709 mmHg 9%
    11:00 +36°C° 0 mm 1 mps 709 mmHg 9%
    12:00 +39°C° 0 mm 1 mps 708 mmHg 8%
    13:00 +41°C° 0 mm 1 mps 707 mmHg 8%
    14:00 +40°C° 0 mm 1 mps 707 mmHg 8%
    15:00 +40°C° 0 mm 1 mps 706 mmHg 8%
    16:00 +40°C° 0 mm 1 mps 705 mmHg 8%
    17:00 +37°C° 0 mm 1 mps 705 mmHg 9%
    18:00 +35°C° 0 mm 1 mps 705 mmHg 11%
    19:00 +32°C° 0 mm 1 mps 705 mmHg 12%
    20:00 +32°C° 0 mm 1 mps 706 mmHg 12%
    21:00 +31°C° 0 mm 1 mps 706 mmHg 13%
    22:00 +30°C° 0 mm 1 mps 707 mmHg 14%
    23:00 +29°C° 0 mm 1 mps 706 mmHg 14%

    26 January, Saturday

    Time Temperature Precipitation Wind Pressure Humidity
    00:00 +29°C° 0 mm 2 mps 706 mmHg 14%
    01:00 +28°C° 0 mm 2 mps 706 mmHg 14%
    02:00 +28°C° 0 mm 2 mps 706 mmHg 15%
    03:00 +27°C° 0 mm 2 mps 705 mmHg 15%
    04:00 +27°C° 0 mm 3 mps 705 mmHg 15%
    05:00 +26°C° 0 mm 2 mps 706 mmHg 15%
    06:00 +26°C° 0 mm 2 mps 706 mmHg 14%
    07:00 +26°C° 0 mm 2 mps 707 mmHg 14%
    08:00 +29°C° 0 mm 2 mps 707 mmHg 11%
    09:00 +31°C° 0 mm 2 mps 708 mmHg 9%
    10:00 +35°C° 0 mm 2 mps 709 mmHg 7%
    11:00 +37°C° 0 mm 2 mps 708 mmHg 6%
    12:00 +39°C° 0 mm 2 mps 708 mmHg 6%
    13:00 +40°C° 0 mm 1 mps 707 mmHg 5%
    14:00 +40°C° 0 mm 1 mps 706 mmHg 6%
    15:00 +40°C° 0 mm 1 mps 706 mmHg 6%
    16:00 +40°C° 0 mm 1 mps 705 mmHg 6%
    17:00 +37°C° 0 mm 1 mps 705 mmHg 7%
    18:00 +34°C° 0 mm 1 mps 705 mmHg 8%
    19:00 +32°C° 0 mm 2 mps 705 mmHg 9%
    20:00 +31°C° 0 mm 2 mps 706 mmHg 9%
    21:00 +30°C° 0 mm 2 mps 706 mmHg 10%
    22:00 +29°C° 0 mm 2 mps 707 mmHg 11%
    23:00 +29°C° 0 mm 2 mps 707 mmHg 11%

    27 January, Sunday

    Time Temperature Precipitation Wind Pressure Humidity
    00:00 +28°C° 0 mm 3 mps 706 mmHg 11%
    01:00 +28°C° 0 mm 3 mps 706 mmHg 11%
    02:00 +27°C° 0 mm 3 mps 706 mmHg 12%
    03:00 +27°C° 0 mm 3 mps 706 mmHg 12%
    04:00 +26°C° 0 mm 3 mps 705 mmHg 13%
    05:00 +26°C° 0 mm 2 mps 706 mmHg 13%
    06:00 +25°C° 0 mm 2 mps 706 mmHg 13%
    07:00 +25°C° 0 mm 2 mps 707 mmHg 13%
    08:00 +28°C° 0 mm 2 mps 707 mmHg 10%
    09:00 +31°C° 0 mm 2 mps 708 mmHg 8%
    10:00 +35°C° 0 mm 2 mps 709 mmHg 6%
    11:00 +36°C° 0 mm 2 mps 708 mmHg 6%
    12:00 +37°C° 0 mm 1 mps 708 mmHg 5%
    13:00 +40°C° 0 mm 1 mps 707 mmHg 5%
    14:00 +40°C° 0 mm 1 mps 706 mmHg 5%
    15:00 +39°C° 0 mm 1 mps 706 mmHg 5%
    16:00 +39°C° 0 mm 2 mps 705 mmHg 5%
    17:00 +37°C° 0 mm 2 mps 705 mmHg 6%
    18:00 +35°C° 0 mm 2 mps 705 mmHg 7%
    19:00 +32°C° 0 mm 2 mps 705 mmHg 8%
    20:00 +31°C° 0 mm 2 mps 706 mmHg 8%
    21:00 +30°C° 0 mm 1 mps 706 mmHg 9%
    22:00 +29°C° 0 mm 1 mps 707 mmHg 9%
    23:00 +29°C° 0 mm 2 mps 706 mmHg 10%

    28 January, Monday

    Time Temperature Precipitation Wind Pressure Humidity
    00:00 +28°C° 0 mm 2 mps 706 mmHg 10%
    01:00 +27°C° 0 mm 2 mps 706 mmHg 10%
    02:00 +27°C° 0 mm 2 mps 706 mmHg 11%
    03:00 +26°C° 0 mm 2 mps 705 mmHg 12%
    04:00 +25°C° 0 mm 2 mps 705 mmHg 13%
    05:00 +25°C° 0 mm 2 mps 705 mmHg 13%
    06:00 +25°C° 0 mm 2 mps 706 mmHg 13%
    07:00 +24°C° 0 mm 2 mps 706 mmHg 13%
    08:00 +28°C° 0 mm 1 mps 707 mmHg 11%
    09:00 +31°C° 0 mm 1 mps 708 mmHg 9%
    10:00 +34°C° 0 mm 1 mps 708 mmHg 7%
    11:00 +35°C° 0 mm 1 mps 708 mmHg 7%
    12:00 +38°C° 0 mm 2 mps 707 mmHg 7%
    13:00 +39°C° 0 mm 2 mps 707 mmHg 7%
    14:00 +39°C° 0 mm 2 mps 706 mmHg 7%
    15:00 +39°C° 0 mm 1 mps 706 mmHg 8%
    16:00 +39°C° 0 mm 1 mps 705 mmHg 9%
    17:00 +36°C° 0 mm 1 mps 705 mmHg 11%
    18:00 +34°C° 0 mm 1 mps 705 mmHg 12%
    19:00 +32°C° 0 mm 1 mps 705 mmHg 14%
    20:00 +31°C° 0 mm 1 mps 706 mmHg 15%
    21:00 +30°C° 0 mm 1 mps 706 mmHg 16%
    22:00 +30°C° 0 mm 1 mps 707 mmHg 16%
    23:00 +29°C° 0 mm 2 mps 706 mmHg 16%
    Show more